Preview of NWS' New Version of Forecast
This preview is not operational and should not be used for support decisions.

Regional Weather Roundup (RWR)

Issued by National Weather Service (NWS)

                            
000
ASUS45 KBOI 182010
RWRID 

IDAHO REGIONAL WEATHER ROUNDUP
NATIONAL WEATHER SERVICE BOISE ID
200 PM MDT THU APR 18 2019

NOTE: "FAIR" INDICATES FEW OR NO CLOUDS BELOW 12000 FEET
WITH NO SIGNIFICANT WEATHER AND/OR OBSTRUCTIONS TO VISIBILITY

IDZ012-014-182100-
SOUTHWEST IDAHO

  
CITY           SKY/WX    TMP DP  RH WIND       PRES   REMARKS
BOISE          SUNNY     68  37  32 W7        30.29F                  
CALDWELL       SUNNY     67  45  45 NE3       30.30F                  
MOUNTAIN HOME  MOSUNNY   68  36  31 VRB3      30.29F                  
$$

IDZ016-017-182100-
SOUTHCENTRAL IDAHO

  
CITY           SKY/WX    TMP DP  RH WIND       PRES   REMARKS
BURLEY         SUNNY     64  34  32 W13       30.32F                  
JEROME         SUNNY     60  39  45 VRB3      30.33F                  
TWIN FALLS     SUNNY     63  36  36 W10       30.33F                  
$$

IDZ019>023-182100-
SOUTHEAST IDAHO

  
CITY           SKY/WX    TMP DP  RH WIND       PRES   REMARKS
IDAHO FALLS    SUNNY     59  31  34 W12G17    30.34F                  
POCATELLO      SUNNY     61  36  39 W18       30.35F                  
REXBURG        SUNNY     58  30  34 SW12      30.33F                  
$$

IDZ006-010-011-018-031-032-182100-
CENTRAL IDAHO MOUNTAINS

  
CITY           SKY/WX    TMP DP  RH WIND       PRES   REMARKS
MCCALL         SUNNY     49  24  37 S5        30.32F                  
STANLEY          N/A     51  25  36 N5        30.36F                  
SALMON         SUNNY     59  33  37 VRB3      30.29F                  
CHALLIS        SUNNY     65  29  25 CALM      30.28F                  
$$

IDZ002-004-006-007-026-182100-
NORTHERN IDAHO

  
CITY           SKY/WX    TMP DP  RH WIND       PRES   REMARKS
LEWISTON       MOSUNNY   66  46  48 VRB7      30.23F                  
LOWELL           N/A     67  43  41 CALM      30.23F                  
COEUR D'ALENE  CLOUDY    57  41  55 N6        30.25F                  
MULLAN PASS    CLOUDY    44  30  57 W3        30.28S                  
$$